Weather History for KPEX - August, 2013

Change the Weather History Date:

Tuesday, August 27, 2013

  Actual Average (KSTC) Record (KSTC)
Temperature  
Mean Temperature 81 °F 66 °F  
Max Temperature 92 °F 77 °F 98 °F (1921)
Min Temperature 70 °F 54 °F 37 °F (1982)
Degree Days  
Heating Degree Days 0 2  
Month to date heating degree days 32  
Since 1 June heating degree days 127  
Since 1 July heating degree days 49  
Cooling Degree Days 16 3  
Month to date cooling degree days 115  
Year to date cooling degree days 417  
Since 1 June cooling degree days 392  
Growing Degree Days 31 (Base 50)    
Moisture  
Dew Point 71 °F    
Average Humidity 74    
Maximum Humidity 96    
Minimum Humidity 44    
Precipitation  
Precipitation 0.00 in 0.13 in 3.59 in (1960)
Month to date precipitation 3.25  
Year to date precipitation 19.04  
Snow  
Snow 0.00 in 0.00 in 0.00 in ()
Month to date snowfall 0.0  
Since 1 June snowfall 0.0  
Since 1 July snowfall 0.0  
Snow Depth -    
Sea Level Pressure  
Sea Level Pressure 29.86 in    
Wind  
Wind Speed 4 mph (NE)    
Max Wind Speed 8 mph    
Max Gust Speed -    
Visibility 9 miles    
Events      
T = Trace of Precipitation, MM = Missing Value Source: NWS Daily Summary

Daily Weather History Graph

Daily Weather History Graph

Search for Another Location

Airport or City:

Trip Planner

Search our weather history database for the weather conditions in past years. The results will help you decide how hot, cold, wet, or windy it might be!

Date:

Astronomy

Aug. 27, 2013 Rise Set
Actual Time 6:34 AM CDT 8:05 PM CDT
Civil Twilight 6:03 AM CDT 8:35 PM CDT
Nautical Twilight 5:26 AM CDT 9:13 PM CDT
Astronomical Twilight 4:46 AM CDT 9:53 PM CDT
Moon 11:37 PM CDT (8/27) 1:55 PM CDT (8/27)
Length of Visible Light 14h 32m
Length of Day
13h 30m
Waning Gibbous, 57% of the Moon is Illuminated
Aug 27
Waning Gibbous
Aug 28
Last Quarter
Sep 5
New
Sep 12
First Quarter
Sep 19
Full

Hourly Weather History & Observations

Time (CDT) Temp. Heat Index Dew Point Humidity Pressure Visibility Wind Dir Wind Speed Gust Speed Precip Events Conditions
12:13 AM 79.3 °F - 74.3 °F 84% 29.84 in 10.0 mi South 5.8 mph - N/A   Clear
12:32 AM 78.8 °F - 74.3 °F 86% 29.85 in 10.0 mi South 4.6 mph - N/A   Clear
12:53 AM 78.8 °F - 74.1 °F 85% 29.84 in 10.0 mi SSE 5.8 mph - N/A   Clear
1:12 AM 78.3 °F - 73.9 °F 87% 29.84 in 10.0 mi South 4.6 mph - N/A   Clear
1:33 AM 77.9 °F - 73.8 °F 87% 29.84 in 10.0 mi SSE 6.9 mph - N/A   Clear
1:53 AM 77.9 °F - 73.8 °F 87% 29.83 in 10.0 mi South 6.9 mph - N/A   Clear
2:13 AM 77.7 °F - 73.4 °F 86% 29.82 in 10.0 mi South 5.8 mph - N/A   Clear
2:32 AM 77.2 °F - 73.4 °F 88% 29.81 in 10.0 mi South 4.6 mph - N/A   Clear
2:53 AM 77.2 °F - 73.2 °F 88% 29.81 in 10.0 mi South 3.5 mph - N/A   Clear
3:13 AM 77.0 °F - 72.9 °F 87% 29.81 in 10.0 mi South 5.8 mph - N/A   Clear
3:33 AM 76.6 °F - 72.9 °F 88% 29.80 in 10.0 mi South 4.6 mph - N/A   Clear
3:52 AM 76.3 °F - 72.7 °F 89% 29.81 in 10.0 mi South 5.8 mph - N/A   Clear
4:13 AM 76.1 °F - 72.7 °F 89% 29.81 in 10.0 mi Calm Calm - N/A   Clear
4:33 AM 75.4 °F - 72.5 °F 91% 29.81 in 7.0 mi Calm Calm - N/A   Clear
4:53 AM 75.2 °F - 72.3 °F 91% 29.80 in 10.0 mi Calm Calm - N/A   Clear
5:13 AM 75.2 °F - 72.3 °F 91% 29.81 in 10.0 mi Calm Calm - N/A   Clear
5:32 AM 74.3 °F - 72.0 °F 92% 29.81 in 7.0 mi North 3.5 mph - N/A   Clear
5:53 AM 73.8 °F - 71.8 °F 93% 29.81 in 5.0 mi Calm Calm - N/A   Clear
6:12 AM 73.8 °F - 71.8 °F 93% 29.82 in 5.0 mi Calm Calm - N/A   Clear
6:33 AM 72.9 °F - 71.1 °F 94% 29.82 in 4.0 mi Calm Calm - N/A   Clear
6:53 AM 72.7 °F - 71.4 °F 96% 29.83 in 2.5 mi Calm Calm - N/A   Clear
7:12 AM 73.4 °F - 72.0 °F 95% 29.83 in 2.5 mi Calm Calm - N/A   Clear
7:33 AM 74.1 °F - 72.7 °F 95% 29.84 in 4.0 mi Calm Calm - N/A   Clear
7:52 AM 74.7 °F - 72.7 °F 94% 29.84 in 4.0 mi Calm Calm - N/A   Clear
8:13 AM 76.5 °F - 73.2 °F 90% 29.84 in 5.0 mi Calm Calm - N/A   Clear
8:33 AM 77.9 °F - 73.4 °F 86% 29.84 in 7.0 mi Calm Calm - N/A   Clear
8:53 AM 79.2 °F - 73.8 °F 83% 29.84 in 7.0 mi Calm Calm - N/A   Scattered Clouds
9:13 AM 81.1 °F 86.8 °F 74.3 °F 80% 29.84 in 7.0 mi Calm Calm - N/A   Scattered Clouds
9:32 AM 82.0 °F 88.1 °F 74.3 °F 77% 29.84 in 7.0 mi Calm Calm - N/A   Clear
9:53 AM 82.4 °F 88.7 °F 74.3 °F 76% 29.84 in 7.0 mi Calm Calm - N/A   Clear
10:13 AM 84.2 °F 91.6 °F 74.3 °F 72% 29.85 in 10.0 mi North 3.5 mph - N/A   Clear
10:32 AM 84.0 °F 91.5 °F 74.5 °F 73% 29.85 in 10.0 mi North 4.6 mph - N/A   Scattered Clouds
10:53 AM 83.7 °F 91.0 °F 74.7 °F 74% 29.86 in 10.0 mi North 4.6 mph - N/A   Mostly Cloudy
11:12 AM 83.3 °F 90.2 °F 74.1 °F 74% 29.87 in 10.0 mi North 8.1 mph - N/A   Overcast
11:33 AM 82.9 °F 89.4 °F 73.8 °F 74% 29.87 in 10.0 mi North 6.9 mph - N/A   Overcast
11:52 AM 82.8 °F 89.2 °F 73.9 °F 75% 29.88 in 10.0 mi NNE 6.9 mph - N/A   Overcast
12:13 PM 82.9 °F 89.4 °F 73.8 °F 74% 29.88 in 10.0 mi Calm Calm - N/A   Mostly Cloudy
12:33 PM 84.9 °F 92.1 °F 73.8 °F 69% 29.88 in 10.0 mi NNE 5.8 mph - N/A   Mostly Cloudy
12:52 PM 86.4 °F 94.2 °F 73.6 °F 66% 29.88 in 10.0 mi NNE 5.8 mph - N/A   Scattered Clouds
1:13 PM 88.0 °F 96.0 °F 73.4 °F 62% 29.87 in 10.0 mi East 5.8 mph - N/A   Scattered Clouds
1:33 PM 88.7 °F 96.2 °F 72.7 °F 59% 29.87 in 10.0 mi East 4.6 mph - N/A   Scattered Clouds
1:52 PM 90.0 °F 97.4 °F 72.3 °F 56% 29.87 in 10.0 mi Calm Calm - N/A   Scattered Clouds
2:12 PM 90.1 °F 97.8 °F 72.3 °F 56% 29.86 in 10.0 mi NNE 5.8 mph - N/A   Clear
2:33 PM 89.8 °F 96.5 °F 71.8 °F 55% 29.86 in 10.0 mi Calm Calm - N/A   Clear
2:53 PM 90.3 °F 97.2 °F 71.6 °F 54% 29.86 in 10.0 mi NNE 8.1 mph - N/A   Scattered Clouds
3:13 PM 90.5 °F 97.5 °F 71.6 °F 54% 29.86 in 10.0 mi North 4.6 mph - N/A   Mostly Cloudy
3:32 PM 90.5 °F 97.0 °F 71.4 °F 53% 29.85 in 10.0 mi North 5.8 mph - N/A   Scattered Clouds
3:53 PM 91.9 °F 98.4 °F 71.1 °F 50% 29.85 in 10.0 mi NNE 5.8 mph - N/A   Scattered Clouds
4:13 PM 90.5 °F 96.5 °F 70.9 °F 52% 29.87 in 10.0 mi North 8.1 mph - N/A   Mostly Cloudy
4:32 PM 90.3 °F 96.2 °F 70.3 °F 52% 29.87 in 10.0 mi North 5.8 mph - N/A   Scattered Clouds
4:53 PM 90.5 °F 95.5 °F 69.8 °F 50% 29.87 in 10.0 mi North 4.6 mph - N/A   Scattered Clouds
5:12 PM 90.9 °F 94.8 °F 68.0 °F 47% 29.87 in 10.0 mi NNE 6.9 mph - N/A   Clear
5:33 PM 90.9 °F 93.5 °F 66.0 °F 44% 29.88 in 10.0 mi NNW 4.6 mph - N/A   Clear
5:53 PM 90.5 °F 92.9 °F 66.0 °F 44% 29.88 in 10.0 mi NE 4.6 mph - N/A   Clear
6:13 PM 89.8 °F 92.9 °F 67.1 °F 47% 29.89 in 10.0 mi North 6.9 mph - N/A   Clear
6:33 PM 89.4 °F 92.3 °F 66.9 °F 47% 29.89 in 10.0 mi NNE 5.8 mph - N/A   Clear
6:52 PM 88.0 °F 90.7 °F 66.9 °F 49% 29.89 in 10.0 mi NNE 5.8 mph - N/A   Clear
7:13 PM 87.3 °F 90.2 °F 67.1 °F 51% 29.89 in 10.0 mi NE 5.8 mph - N/A   Clear
7:33 PM 85.6 °F 88.8 °F 67.6 °F 55% 29.90 in 10.0 mi NE 5.8 mph - N/A   Clear
7:53 PM 83.7 °F 86.7 °F 68.0 °F 59% 29.91 in 10.0 mi NNE 4.6 mph - N/A   Clear
8:13 PM 82.2 °F 84.7 °F 67.1 °F 60% 29.91 in 10.0 mi NNE 3.5 mph - N/A   Clear
8:32 PM 79.9 °F - 67.3 °F 65% 29.92 in 10.0 mi Calm Calm - N/A   Clear
8:53 PM 77.9 °F - 68.0 °F 71% 29.93 in 10.0 mi Calm Calm - N/A   Clear
9:13 PM 77.0 °F - 68.9 °F 76% 29.93 in 10.0 mi Calm Calm - N/A   Clear
9:32 PM 75.7 °F - 68.2 °F 77% 29.94 in 10.0 mi Calm Calm - N/A   Clear
9:53 PM 75.4 °F - 68.4 °F 79% 29.94 in 10.0 mi NE 3.5 mph - N/A   Clear
10:13 PM 75.4 °F - 68.9 °F 80% 29.94 in 10.0 mi Calm Calm - N/A   Clear
10:32 PM 74.3 °F - 68.7 °F 83% 29.95 in 10.0 mi Calm Calm - N/A   Clear
10:53 PM 72.7 °F - 68.0 °F 85% 29.96 in 10.0 mi Calm Calm - N/A   Clear
11:13 PM 71.1 °F - 68.2 °F 91% 29.96 in 10.0 mi Calm Calm - N/A   Clear
11:33 PM 70.2 °F - 66.6 °F 88% 29.96 in 10.0 mi Calm Calm - N/A   Clear